GFSFLT2_700_spd_000.txt.gz
Wind_Speed
55 54 56 58 59 60 60 60 59 56 54 50 48 45 47 47 49 49 47 46 45 44 44 43 46 50 50
54 55 56 57 60 61 59 58 58 54 49 44 43 40 42 43 42 41 35 39 40 43 39 39 39 43 38
57 55 56 57 58 57 58 57 52 45 43 40 36 36 34 31 30 37 43 46 46 44 42 45 43 42 38
52 54 49 54 55 60 56 48 45 42 39 34 37 35 34 35 36 37 39 40 40 38 33 31 32 32 38
48 49 51 54 57 53 50 47 43 42 43 40 43 39 36 34 34 34 36 36 34 33 36 37 37 37 40
44 53 57 57 47 45 45 46 49 41 46 44 44 41 37 34 33 33 35 37 38 42 43 43 41 39 44
54 56 52 46 43 43 43 46 48 46 43 43 35 36 30 28 27 28 30 31 33 37 40 42 44 46 47
51 48 42 39 39 42 45 45 44 40 38 44 36 34 28 21 20 24 26 30 33 34 32 31 38 41 44
37 33 33 35 35 36 36 40 42 39 32 38 34 34 27 17 16 19 25 31 30 31 34 38 42 44 51
32 31 31 27 27 29 33 37 39 38 29 36 34 33 30 18 16 19 24 26 24 23 25 28 33 44 44
35 28 25 26 28 29 30 32 34 35 31 32 34 33 33 32 14 16 19 14 10 10 14 17 18 23 26
27 26 28 28 28 28 28 28 28 30 31 30 33 34 33 27 22 12 13 11 10 10 12 10 9 9 15
27 28 27 27 27 27 27 28 27 26 26 28 29 30 27 20 14 9 5 6 11 10 7 6 8 8 10
27 26 26 27 28 30 30 28 27 25 24 24 25 21 13 9 10 11 12 13 12 18 18 6 3 11 16
26 28 28 26 25 27 28 26 25 28 24 20 18 13 12 14 15 15 15 18 19 18 17 12 1 6 11
28 30 28 26 24 23 25 25 24 25 24 21 15 13 15 17 20 24 25 21 17 16 12 6 4 8 12
29 27 25 24 23 21 22 25 22 23 21 18 14 15 17 22 27 26 21 18 15 15 22 20 18 15 19

GFSFLT2_700_spd_003.txt.gz
Wind_Speed
64 63 63 64 64 62 60 58 56 55 56 57 57 53 47 40 40 43 41 49 49 50 52 55 51 46 47
65 63 62 60 60 60 58 56 57 58 56 52 45 40 39 40 39 36 35 33 35 39 42 44 42 45 49
59 57 56 54 56 57 55 55 57 55 47 44 39 39 39 39 39 37 36 40 44 46 43 48 48 46 44
52 52 49 51 53 58 58 57 53 47 43 39 41 42 43 44 44 43 43 43 46 47 49 48 46 44 38
48 49 52 53 57 60 58 52 45 40 45 41 42 39 37 37 37 39 42 43 43 43 42 40 37 36 38
46 51 56 59 56 48 45 45 48 39 42 40 37 37 34 33 32 33 33 37 41 42 43 44 42 43 45
53 55 51 44 43 44 44 44 42 40 42 42 35 34 30 28 24 25 28 31 34 39 43 45 47 50 49
43 40 39 39 40 40 41 43 43 39 39 43 36 35 30 24 20 22 25 29 32 35 38 41 43 44 40
32 33 33 32 34 39 40 42 41 36 32 39 35 36 33 23 16 19 25 29 32 39 41 40 40 43 44
31 26 28 30 31 32 35 39 40 39 34 40 39 40 41 27 23 21 24 24 31 33 29 26 27 30 36
29 29 28 28 28 29 31 35 39 39 35 37 39 38 39 38 14 17 20 21 22 17 19 23 25 27 29
29 28 28 28 28 29 30 31 32 35 33 33 37 35 33 26 17 8 11 15 18 18 22 21 21 24 26
28 29 30 31 30 28 27 31 30 28 29 29 29 24 21 20 19 18 16 12 17 18 14 13 15 12 13
30 31 31 28 25 26 27 30 29 25 23 24 21 18 16 19 21 20 21 26 23 22 19 17 12 9 6
30 30 26 25 24 24 26 28 28 28 23 17 15 17 18 20 23 26 28 26 25 28 23 18 9 8 5
26 25 25 27 25 22 25 25 26 23 20 16 13 13 15 21 26 29 31 31 27 26 21 13 8 4 3
21 24 26 27 24 21 22 22 22 19 17 14 13 13 17 19 20 23 27 30 29 28 28 19 15 2 6

GFSFLT2_700_spd_006.txt.gz
Wind_Speed
67 65 64 62 60 57 55 53 49 45 48 49 52 53 53 52 51 51 50 47 41 40 44 45 50 53 53
65 62 59 55 53 50 48 48 51 52 52 50 46 43 42 40 41 41 41 43 45 41 36 38 41 46 47
60 55 52 49 48 49 51 52 51 48 45 41 38 38 38 39 42 43 45 47 48 44 40 45 46 44 45
50 52 52 51 52 53 53 47 44 41 38 36 36 33 34 36 39 40 42 45 47 49 50 50 51 51 50
49 52 52 48 47 46 46 44 39 37 38 34 34 33 32 32 33 35 37 38 40 41 44 46 48 46 47
49 47 45 43 42 43 42 42 42 40 41 35 35 33 31 31 29 30 31 32 32 35 38 41 44 46 45
44 40 42 41 40 38 39 41 41 40 43 41 35 33 30 28 27 28 30 30 28 29 31 35 39 42 45
35 36 35 34 37 39 41 42 40 39 42 45 38 38 35 29 25 24 26 29 30 29 30 34 39 43 44
28 26 29 32 36 39 38 41 43 40 38 45 41 42 38 29 22 21 26 30 31 33 34 38 41 40 44
24 25 28 29 30 34 38 40 42 43 39 44 42 43 42 29 20 18 20 23 29 32 35 36 34 33 32
27 28 29 30 31 32 32 33 37 40 38 40 41 36 32 28 16 18 19 18 22 23 25 27 28 31 32
28 30 33 31 27 26 27 27 30 36 35 33 33 28 27 28 27 21 19 18 20 21 24 25 26 27 29
30 32 30 26 27 27 24 26 27 29 29 27 21 21 24 29 32 33 34 28 29 29 30 27 22 20 19
31 29 25 25 27 27 25 28 28 23 21 20 19 20 23 25 27 31 34 38 34 33 36 31 26 21 19
28 24 23 25 25 26 26 27 29 26 15 12 16 18 19 23 24 29 33 37 34 36 38 28 20 15 13
21 25 26 27 28 25 25 27 27 23 16 14 12 10 10 17 27 34 37 38 38 39 36 22 14 14 13
22 26 29 28 28 26 24 25 23 21 16 15 14 14 15 20 27 34 37 39 39 41 35 19 18 15 18

GFSFLT2_700_spd_009.txt.gz
Wind_Speed
63 61 60 58 54 50 48 47 46 43 41 40 40 42 42 43 44 47 49 50 45 42 40 39 39 38 40
61 57 55 52 48 45 43 42 41 37 36 36 36 37 38 38 39 39 38 38 39 41 40 43 40 44 39
57 52 51 47 45 44 43 40 39 37 34 33 34 35 35 36 38 40 41 44 46 47 49 50 48 44 42
49 50 48 45 43 43 43 37 35 33 32 33 32 33 33 34 36 38 39 41 42 43 45 47 50 53 53
48 48 43 42 42 42 39 35 34 37 33 31 32 35 33 33 34 34 35 35 36 38 40 41 42 45 47
48 43 41 41 39 36 39 39 35 34 41 36 36 36 36 34 34 35 35 34 36 35 34 34 36 38 40
41 37 39 35 37 37 36 39 39 38 41 42 38 38 37 34 31 32 33 35 36 35 31 28 27 29 30
33 31 31 34 36 39 41 44 41 36 36 43 39 38 33 23 22 27 30 32 34 34 31 29 27 28 30
26 26 28 31 35 40 40 42 38 32 33 43 39 35 23 17 16 19 20 20 25 28 29 31 32 34 37
23 24 27 30 32 34 35 36 38 35 34 41 34 31 23 23 23 22 21 19 21 23 25 27 28 31 33
23 26 30 31 27 28 30 32 32 34 34 36 29 24 25 24 24 27 30 27 23 22 23 25 27 31 34
27 29 30 26 24 26 27 26 27 32 32 29 25 23 19 21 26 27 28 29 32 31 29 26 25 26 29
29 29 26 23 25 27 24 24 23 27 27 26 22 19 19 24 29 31 36 32 33 36 35 32 28 24 26
30 26 23 24 26 29 28 26 25 23 23 22 20 19 19 22 28 33 36 40 39 43 38 28 20 19 23
24 23 24 27 26 28 28 26 27 28 21 16 16 17 18 25 27 34 36 36 40 44 35 21 16 18 21
21 25 29 30 29 27 27 27 26 25 25 20 15 12 15 17 30 34 35 37 39 38 31 25 14 23 12
24 27 30 30 29 28 28 27 25 25 23 21 20 21 22 24 22 32 36 35 38 35 26 22 15 18 20

GFSFLT2_700_spd_012.txt.gz
Wind_Speed
60 59 59 58 56 52 52 51 45 39 37 38 38 38 39 39 39 41 42 43 44 45 45 43 45 46 48
59 57 55 52 51 51 50 45 40 39 35 32 33 36 40 41 40 40 41 42 43 44 44 41 43 45 47
59 53 51 50 50 48 45 42 40 36 32 36 35 34 37 38 40 41 41 43 44 42 43 46 49 49 51
51 50 50 48 47 45 45 37 34 35 33 37 35 35 37 38 38 39 40 44 44 43 42 41 43 46 48
46 49 48 45 43 42 39 37 32 40 37 36 37 32 34 37 39 40 42 43 44 45 42 41 40 39 41
45 48 42 41 39 35 38 37 38 35 41 33 34 32 35 35 35 38 40 40 39 39 41 39 36 35 36
42 39 39 34 36 35 35 40 43 38 36 35 31 34 32 26 28 29 29 29 28 28 30 31 30 30 29
36 34 30 33 34 37 40 42 39 36 37 38 32 32 19 17 21 23 25 26 28 27 25 24 25 27 27
30 28 28 29 33 38 37 40 38 33 28 37 32 31 15 9 11 14 20 23 24 25 27 28 26 27 30
26 26 27 29 32 32 33 36 38 34 30 36 33 30 17 8 14 17 19 25 27 28 29 30 31 33 34
25 26 29 31 28 27 30 33 34 33 31 37 35 27 27 24 15 20 26 30 34 32 31 33 35 35 38
28 29 30 26 24 27 29 30 31 32 30 33 35 30 27 26 29 25 29 36 39 36 35 37 31 29 33
30 28 25 24 26 30 29 30 29 26 29 30 32 29 28 29 34 32 38 38 37 36 36 37 31 25 27
28 26 25 26 28 31 31 30 27 21 24 28 28 28 28 28 32 35 35 41 39 36 33 32 24 22 23
25 27 29 31 30 30 30 29 29 29 26 25 25 25 25 28 30 32 34 36 36 34 29 28 15 20 20
26 30 32 32 30 28 29 29 29 28 29 28 26 21 19 18 26 33 34 35 34 30 25 27 17 17 20
28 30 30 30 30 28 28 29 27 28 27 28 27 27 26 23 16 24 36 34 33 27 24 20 20 20 19

GFSFLT2_700_spd_015.txt.gz
Wind_Speed
58 59 59 59 59 56 51 49 49 45 42 40 41 41 40 38 40 42 41 42 41 41 41 43 44 44 42
60 60 58 54 52 49 48 48 45 40 40 35 32 35 38 40 41 42 42 42 42 44 44 43 42 43 44
60 56 51 48 49 48 47 44 40 37 32 31 34 34 38 40 40 41 41 42 44 46 48 46 45 45 44
53 50 47 47 46 47 44 41 33 33 31 33 39 36 34 32 33 36 40 43 43 42 43 46 45 44 43
46 47 47 45 44 43 42 37 31 34 41 34 39 32 30 29 33 36 36 29 26 27 29 31 35 36 39
45 46 44 41 41 39 38 39 38 31 44 32 35 29 27 30 31 31 25 23 22 24 26 26 24 26 28
43 42 41 37 37 37 36 38 40 37 39 34 30 26 28 27 26 24 22 20 22 24 26 25 23 22 23
38 37 35 33 35 36 38 41 37 34 36 40 31 29 27 19 21 19 19 19 22 25 28 30 30 28 26
31 32 32 30 32 36 35 38 38 32 32 39 35 32 31 17 18 19 21 23 25 29 32 34 35 35 36
27 27 29 30 32 32 32 34 38 36 32 39 38 39 37 19 13 20 24 25 29 31 35 36 34 38 40
29 29 30 30 29 26 28 33 37 37 33 38 38 37 38 38 22 19 23 26 31 32 35 35 35 35 40
29 27 27 25 25 27 30 32 33 33 31 32 37 37 39 37 34 21 22 27 32 36 39 37 33 33 33
27 26 26 28 29 32 31 32 30 28 28 30 35 37 36 38 38 29 33 28 29 35 37 34 34 34 34
28 28 30 31 32 33 33 31 30 24 23 28 31 34 35 34 36 34 32 38 38 37 37 34 32 30 27
28 31 33 34 31 30 31 31 31 30 28 27 28 30 30 31 32 30 34 36 34 37 36 36 27 26 27
28 32 34 32 30 29 31 31 32 31 31 31 32 28 25 21 27 30 31 34 33 33 33 35 26 20 24
29 30 30 30 31 31 32 32 31 31 30 30 30 30 30 26 14 22 33 33 33 30 31 30 27 20 25

GFSFLT2_700_spd_018.txt.gz
Wind_Speed
55 57 58 58 58 58 55 51 48 46 45 43 40 40 39 37 37 35 35 36 38 38 39 40 41 42 41
56 57 57 55 54 52 48 47 46 41 39 36 33 34 33 36 37 38 38 39 39 39 40 39 40 42 43
57 55 52 50 48 46 46 43 40 36 34 29 33 32 36 38 38 37 37 37 37 37 37 39 39 40 42
52 50 47 44 43 44 41 39 35 29 32 29 36 36 36 36 34 34 35 36 35 35 30 28 29 31 35
47 45 42 40 39 40 38 36 29 30 35 31 38 33 31 30 29 31 34 35 31 23 22 21 21 23 27
43 42 39 37 37 36 36 39 38 29 38 35 34 31 29 26 26 31 33 28 23 20 17 17 19 20 22
40 37 37 34 36 37 34 35 37 36 41 40 32 30 27 24 24 30 31 25 22 20 20 21 23 25 27
33 33 33 34 35 38 38 40 36 32 35 43 31 29 27 24 22 25 26 25 24 24 27 27 28 30 33
28 30 31 32 34 38 36 37 36 31 30 41 36 34 29 25 20 19 22 27 30 30 31 31 32 35 37
25 26 29 30 30 31 32 37 38 39 31 41 40 41 35 28 22 21 21 25 32 34 34 33 36 38 39
28 27 26 26 26 28 31 36 39 40 32 38 40 39 41 40 31 25 23 21 28 31 31 32 34 36 41
27 25 25 25 27 29 30 31 32 35 31 33 39 38 41 42 39 30 25 22 26 28 30 31 32 34 36
25 24 26 29 30 31 29 30 30 28 30 31 35 38 40 41 41 33 33 26 23 27 28 32 33 34 35
26 26 29 31 30 31 32 33 33 29 26 30 32 36 38 36 36 35 30 34 29 29 32 32 28 27 32
26 29 31 31 29 30 32 34 35 36 34 28 28 30 31 32 32 28 29 31 29 31 32 33 24 25 26
26 30 32 32 32 31 33 33 35 36 35 33 32 30 25 23 28 29 27 31 31 31 29 33 27 17 25
28 30 32 32 33 33 33 33 34 34 33 31 31 32 32 27 20 27 32 31 32 28 26 28 27 20 21

GFSFLT2_700_spd_021.txt.gz
Wind_Speed
52 52 52 54 55 56 54 54 52 48 46 44 43 43 43 41 40 37 36 36 35 37 38 38 39 39 37
53 54 54 55 57 55 51 48 46 42 39 36 36 38 35 34 35 37 37 38 39 39 39 38 37 37 39
55 54 55 52 51 48 46 44 39 34 33 31 30 33 32 35 38 39 39 39 40 38 37 34 33 33 36
55 55 52 47 45 46 41 37 32 27 30 32 31 33 34 36 37 37 38 38 37 35 33 33 33 31 28
54 51 46 43 41 39 37 35 32 28 31 34 32 34 32 33 34 34 34 36 36 34 34 32 27 25 25
49 46 41 38 36 36 37 36 36 28 32 35 30 33 31 32 31 32 31 35 35 33 29 27 26 25 24
43 39 38 35 36 37 36 37 35 31 35 38 32 34 31 30 29 28 29 33 35 32 28 28 28 29 27
34 34 34 34 35 38 37 39 36 31 33 42 37 36 32 28 26 25 24 28 34 33 30 30 31 32 31
28 29 31 32 33 36 34 37 37 34 28 39 38 39 37 28 26 22 23 25 29 34 35 32 34 35 36
23 25 28 28 28 31 34 37 39 41 30 38 39 40 45 33 29 25 24 24 27 32 36 37 37 38 39
25 25 24 24 25 27 31 35 36 36 31 38 43 41 43 46 37 33 27 25 26 27 32 35 38 40 41
26 25 24 23 25 28 29 30 31 34 35 35 42 41 44 45 42 34 28 25 26 24 28 31 35 38 40
25 24 25 27 28 30 28 30 31 29 29 33 37 39 40 42 43 36 32 26 23 25 25 27 28 32 37
27 26 27 29 28 30 31 33 34 29 26 31 35 37 38 37 37 34 30 33 28 27 28 25 23 26 33
26 28 29 30 30 31 32 34 35 35 33 31 30 32 32 33 32 28 27 27 27 28 28 29 20 22 27
26 29 31 32 33 31 33 35 35 34 34 34 34 32 28 24 29 27 22 27 27 27 27 31 23 19 27
28 30 30 31 33 33 33 34 33 33 32 31 30 32 35 32 24 26 32 30 32 28 28 28 29 22 24

GFSFLT2_700_spd_024.txt.gz
Wind_Speed
53 52 53 52 52 53 56 58 58 55 54 52 51 50 48 46 45 45 43 41 38 38 39 38 39 39 39
55 54 53 53 56 57 56 54 53 49 47 45 44 44 43 42 40 41 41 40 40 40 42 42 42 42 43
56 55 56 55 56 54 54 49 45 42 38 38 38 39 39 40 41 43 42 43 44 42 42 42 41 40 39
56 58 57 53 52 52 48 42 40 35 33 37 35 37 37 38 41 42 44 45 43 41 41 38 36 36 36
56 56 54 50 47 43 42 39 36 33 32 35 33 34 32 35 37 38 40 41 42 39 40 37 35 35 36
53 52 47 43 40 40 40 40 38 30 31 32 30 33 33 36 35 35 37 39 40 37 39 38 37 36 36
48 44 42 40 39 39 38 37 35 30 33 38 35 37 35 34 33 33 33 35 37 35 38 38 38 36 35
41 38 37 36 37 38 37 38 34 33 33 43 39 39 37 35 31 30 30 32 31 33 37 39 37 35 34
33 32 34 34 35 37 34 37 37 37 33 39 37 39 39 36 29 27 27 27 29 32 37 40 40 37 34
26 27 30 30 31 33 35 38 40 39 32 39 40 42 45 40 35 31 29 27 29 31 34 37 40 41 36
25 25 25 27 28 29 33 37 38 37 34 40 43 42 44 48 44 36 30 27 27 27 30 33 37 40 39
24 25 27 26 26 29 32 33 35 37 35 37 43 41 45 47 46 37 30 27 27 25 26 29 32 35 38
24 25 27 27 28 30 31 33 33 32 33 35 37 39 42 45 46 37 34 27 24 25 25 26 27 30 35
24 25 27 29 30 32 33 33 34 31 30 32 35 38 40 39 39 35 30 34 27 27 29 26 25 26 30
26 28 29 30 30 31 32 33 34 34 30 28 29 32 33 34 34 31 30 27 27 29 29 27 23 24 29
25 28 30 30 30 29 31 33 33 32 31 30 30 31 30 28 33 32 23 28 26 26 28 32 23 21 25
24 27 29 28 29 30 30 32 31 31 29 28 30 33 37 37 29 29 34 33 32 31 31 33 32 21 24

GFSFLT2_700_spd_027.txt.gz
Wind_Speed
54 52 53 53 53 54 56 58 60 60 60 60 59 56 53 51 48 46 44 44 44 43 42 41 40 39 39
54 54 55 55 57 59 59 59 60 57 54 51 49 47 45 44 44 43 44 44 45 45 44 42 42 42 42
55 56 57 56 59 59 60 58 55 48 42 42 41 41 42 43 44 44 44 46 46 46 44 43 43 43 43
55 58 59 58 59 60 58 49 45 38 36 38 38 38 38 40 42 43 43 44 46 46 45 43 41 42 42
57 59 58 57 54 52 49 44 38 36 35 35 35 35 33 35 39 40 41 43 45 46 44 42 40 39 40
58 57 54 50 47 44 42 41 41 35 33 31 32 34 35 37 37 37 39 40 41 42 43 42 39 38 39
53 49 48 43 42 40 40 39 37 34 36 37 38 38 36 34 31 34 36 35 37 40 41 42 39 37 40
44 42 39 36 37 39 38 39 38 36 36 41 39 38 36 35 33 33 31 32 34 38 40 40 40 37 38
36 33 32 34 35 38 38 40 40 38 37 43 38 40 41 39 36 32 29 29 31 34 38 42 42 39 39
25 25 29 30 33 37 39 41 42 42 37 45 42 45 47 42 40 35 34 32 30 33 36 38 39 41 43
22 22 23 27 30 31 34 37 40 40 37 44 45 43 46 50 44 38 36 31 29 28 30 33 36 38 41
20 21 24 25 27 29 31 34 37 40 36 38 45 44 46 47 46 38 31 28 28 26 27 28 30 33 36
19 20 24 26 27 29 30 32 33 34 36 36 40 41 43 44 45 37 35 31 28 28 27 27 26 28 31
18 21 23 26 28 30 30 30 31 28 30 32 35 37 37 37 38 36 34 35 30 28 29 28 26 26 27
20 21 23 25 27 28 30 30 32 31 26 26 31 34 35 37 36 33 33 30 26 29 29 28 23 24 25
20 22 24 26 26 26 29 31 32 31 31 31 33 33 32 28 35 36 30 31 28 27 30 32 25 22 24
19 21 23 25 27 29 30 32 32 33 33 33 34 38 39 37 29 33 38 34 35 33 31 33 36 27 25

GFSFLT2_700_spd_030.txt.gz
Wind_Speed
52 51 50 48 48 50 52 54 56 56 57 59 61 61 59 56 54 51 48 45 43 41 40 41 41 40 39
49 49 48 48 51 53 55 56 58 57 55 55 54 51 49 46 46 44 44 43 42 40 40 40 39 39 38
47 48 49 50 53 55 58 57 55 51 47 45 43 42 41 41 41 41 42 40 39 40 40 40 40 39 38
47 49 51 53 55 57 59 54 49 41 37 38 37 37 37 37 38 39 40 40 42 42 43 43 42 40 40
48 50 53 53 54 55 52 47 38 34 35 33 33 33 32 35 37 38 40 41 42 42 43 44 44 43 42
50 51 52 53 52 48 44 40 38 31 33 33 34 33 35 36 37 37 35 35 36 38 39 40 41 42 42
51 51 52 48 45 40 37 37 35 33 35 37 36 36 34 33 33 33 35 36 37 38 39 41 43 43 43
48 47 44 39 37 36 34 34 36 34 36 42 35 37 35 34 33 33 33 34 34 35 38 41 44 45 45
43 39 34 31 32 32 32 36 37 34 34 42 36 39 38 34 32 31 30 30 30 33 36 40 43 45 45
32 27 26 27 28 31 34 37 39 39 35 43 37 41 44 33 32 31 29 28 29 31 34 37 39 42 43
20 20 21 22 24 27 32 35 37 36 34 44 42 40 43 45 33 31 29 25 26 27 28 31 35 38 40
17 17 17 19 22 26 29 31 33 36 33 38 44 42 44 43 39 31 28 29 29 28 29 29 30 32 34
15 15 17 18 22 24 26 28 27 29 32 35 39 40 41 43 45 35 36 27 28 30 30 29 26 26 27
13 15 17 18 22 25 25 26 25 24 26 31 35 39 41 41 43 40 35 37 31 32 32 27 25 24 25
15 16 18 20 21 24 26 27 30 31 27 28 33 36 37 38 41 37 34 32 31 30 29 27 24 25 24
17 18 19 21 22 24 27 31 32 33 35 35 37 36 33 29 33 35 32 31 29 28 30 33 25 21 24
18 19 21 23 25 27 30 34 34 36 36 37 38 40 42 40 30 30 37 37 36 31 30 30 31 26 25

GFSFLT2_700_spd_033.txt.gz
Wind_Speed
42 42 40 45 48 48 47 49 49 49 52 54 56 57 58 55 52 49 46 45 43 42 42 42 43 43 44
41 40 43 44 46 46 47 48 50 50 52 53 53 52 48 44 41 40 41 42 41 41 40 39 40 40 40
41 41 42 43 45 46 48 48 49 48 49 48 44 39 38 38 38 38 38 39 40 40 40 39 39 39 39
38 43 44 44 46 48 49 48 45 40 40 37 34 34 33 35 38 39 40 41 42 43 43 44 43 42 42
40 44 44 45 47 48 49 47 41 33 31 28 29 29 31 35 36 38 40 41 42 42 40 39 39 39 39
41 43 45 45 47 47 46 43 35 24 28 26 29 28 32 33 33 35 36 37 39 39 39 40 40 41 42
42 43 46 46 46 45 39 34 29 25 30 31 32 32 32 30 31 33 35 37 38 39 40 40 41 42 44
44 45 45 44 42 37 30 27 26 26 31 36 32 34 32 29 28 29 30 32 35 37 39 40 41 43 44
43 43 42 38 33 28 26 26 28 28 30 38 31 35 31 25 24 24 26 28 30 32 34 36 39 41 44
40 37 33 26 24 24 25 26 30 32 32 37 31 35 38 25 25 25 25 25 28 30 32 34 36 39 40
28 22 19 20 21 22 24 27 30 30 32 39 36 35 39 43 27 27 28 26 29 29 31 34 36 38 40
12 14 15 17 19 20 23 25 27 30 29 35 38 39 41 41 41 31 29 28 29 28 30 32 33 35 36
12 13 14 16 18 18 21 22 22 26 30 32 37 38 40 42 45 39 42 30 28 31 31 32 31 30 29
12 13 15 16 19 21 21 23 22 22 28 32 35 39 40 40 42 41 40 42 34 31 34 29 28 28 28
14 15 16 17 20 22 23 25 28 29 28 31 35 37 39 40 40 38 40 37 33 33 33 30 27 28 28
16 16 16 17 18 20 24 27 29 31 32 33 36 37 36 33 36 32 32 35 32 30 31 32 23 18 23
17 18 18 18 19 20 23 27 30 32 32 35 36 40 43 39 30 32 33 29 32 28 25 25 23 15 18

GFSFLT2_700_spd_036.txt.gz
Wind_Speed
53 54 55 57 52 49 51 49 50 48 50 52 52 53 53 54 55 55 55 55 53 47 44 43 43 42 42
53 53 53 52 49 47 47 48 46 49 50 51 52 53 53 53 53 51 49 45 41 40 41 41 41 40 40
47 51 49 47 45 47 46 46 47 47 50 51 52 51 49 48 46 43 39 39 40 42 43 43 42 42 41
45 45 46 46 48 46 46 46 46 46 48 49 47 45 41 41 37 36 37 39 42 44 44 43 42 41 41
42 45 46 44 44 46 47 47 46 43 44 43 40 36 34 35 35 37 39 41 43 43 43 42 40 39 40
44 43 42 43 44 46 45 46 45 37 38 34 29 28 32 33 33 34 37 40 42 43 43 43 42 41 41
40 40 42 43 44 44 42 43 40 30 31 27 25 28 29 28 28 31 35 38 40 41 42 42 41 40 40
40 41 42 42 43 44 40 37 30 21 23 27 26 29 29 25 25 28 32 35 37 38 40 42 42 41 40
41 42 43 42 40 36 27 23 20 16 22 29 27 31 29 22 23 24 27 29 32 35 38 40 41 42 42
40 39 35 30 24 20 19 18 20 21 28 28 26 31 33 20 22 25 27 28 30 32 36 40 41 43 43
25 21 18 17 17 18 19 20 21 24 29 34 28 30 34 38 27 28 30 30 32 31 35 37 38 41 43
12 13 14 15 17 18 20 21 23 25 27 34 36 38 40 41 40 33 31 32 35 31 32 32 34 36 38
11 13 14 16 18 19 21 22 22 25 28 33 37 39 40 42 44 38 40 33 33 34 34 32 31 31 33
13 15 17 18 18 19 20 21 20 21 26 31 34 37 38 40 42 41 40 42 36 35 36 31 30 32 33
15 16 17 18 19 20 20 20 21 21 22 29 35 36 38 40 42 40 37 36 35 36 36 34 26 24 27
17 18 18 19 19 21 21 21 21 23 27 30 34 37 36 36 41 35 32 32 32 33 32 34 26 18 22
19 20 20 21 21 22 22 23 24 26 28 33 37 41 43 43 39 40 36 30 34 32 31 29 26 15 17

GFSFLT2_700_spd_039.txt.gz
Wind_Speed
49 54 56 52 54 50 54 54 56 53 55 54 52 51 53 52 53 53 51 50 51 52 52 51 49 46 44
47 52 54 52 44 48 48 50 51 51 52 51 50 48 52 52 53 51 49 49 50 50 49 46 42 41 42
48 53 49 45 48 48 47 48 47 49 50 47 47 49 49 50 50 50 49 48 47 45 42 41 42 43 43
42 41 42 43 44 44 46 47 50 45 42 46 46 46 48 49 49 47 43 40 39 39 41 43 44 42 40
37 37 38 41 43 46 48 45 44 40 44 46 46 47 45 43 40 36 35 36 38 40 43 44 43 41 39
35 38 40 45 44 43 45 46 45 40 46 45 43 40 35 31 29 30 33 35 38 41 42 43 41 40 39
40 39 40 41 43 44 44 45 42 39 42 34 27 25 22 23 25 27 30 33 37 40 41 41 41 39 38
40 39 41 41 43 44 41 38 32 24 26 20 18 19 19 20 21 23 26 31 34 37 39 39 39 39 40
41 42 40 38 36 31 26 20 14 12 19 20 19 23 20 16 19 20 24 28 31 33 35 36 37 39 40
37 32 27 23 18 14 13 12 14 12 21 20 21 27 28 18 21 23 26 28 32 34 34 34 36 40 41
22 17 13 13 13 13 14 14 15 17 23 28 22 25 30 34 25 22 26 28 32 33 35 35 36 37 38
12 12 12 14 14 15 17 18 18 19 22 28 29 29 31 33 34 29 28 30 34 36 36 35 33 33 34
10 12 13 15 17 18 19 20 19 21 22 26 29 29 32 34 38 33 36 32 34 36 35 33 30 30 29
12 14 16 18 20 21 21 22 21 20 22 24 26 29 31 34 37 36 36 42 36 34 33 33 32 29 29
13 16 18 20 21 23 23 24 24 22 21 24 29 31 32 35 38 37 37 37 37 37 35 34 31 26 25
16 18 20 22 23 24 25 26 27 26 27 26 29 33 36 35 40 39 38 39 36 36 35 36 33 25 25
18 21 22 24 25 25 26 28 29 30 30 32 33 36 42 42 39 40 40 40 40 37 34 33 36 28 26

GFSFLT2_700_spd_042.txt.gz
Wind_Speed
52 49 41 35 41 40 44 44 41 46 43 45 46 47 47 47 46 47 48 47 47 47 47 47 48 48 48
42 42 42 45 41 41 42 42 42 40 46 46 45 44 46 48 48 46 45 47 46 46 46 48 48 48 46
33 36 39 35 39 40 39 41 41 40 40 42 43 46 46 44 43 43 45 47 46 46 47 46 45 42 40
40 37 37 38 38 34 36 38 37 38 42 44 42 43 42 44 44 45 46 46 44 43 41 38 37 37 38
41 35 35 33 32 33 36 38 39 37 41 41 43 44 43 43 43 42 41 39 36 33 33 34 36 36 37
37 32 30 33 36 37 37 40 40 38 45 40 45 43 40 38 34 29 26 26 29 31 32 34 35 35 34
30 31 34 36 39 38 40 42 42 40 41 30 31 25 21 17 18 19 23 25 27 29 32 33 34 34 33
32 34 37 38 41 40 38 33 26 24 22 11 15 11 12 15 18 19 21 24 27 31 33 34 35 36 35
36 38 39 38 33 24 20 13 11 13 19 14 16 15 14 14 16 19 22 26 30 32 34 35 36 37 38
36 32 25 20 13 11 12 13 13 13 20 19 18 23 17 11 14 20 23 26 28 30 32 34 36 38 38
22 15 10 9 11 12 14 14 15 16 22 23 17 20 22 20 9 16 20 22 25 27 30 34 35 36 36
12 10 10 11 12 13 15 16 16 18 21 25 21 22 21 21 20 16 20 23 26 29 31 32 32 33 31
11 12 12 13 15 16 16 18 18 19 22 24 25 24 25 25 27 23 29 24 28 32 33 33 33 31 27
13 13 14 15 17 18 18 21 20 20 23 25 27 28 28 29 33 29 30 35 34 34 36 33 32 31 29
14 15 16 17 19 21 22 22 22 22 22 25 29 31 32 34 37 34 35 34 36 38 37 35 30 27 27
16 17 18 19 20 21 24 25 25 25 25 26 30 33 35 35 38 39 35 37 36 37 37 39 39 33 32
17 19 21 22 23 23 25 27 27 27 27 28 30 34 38 39 34 38 38 37 39 38 38 39 43 36 32

GFSFLT2_700_spd_045.txt.gz
Wind_Speed
42 44 43 38 54 37 28 30 38 37 35 39 40 43 42 41 44 43 42 42 41 42 42 43 43 42 42
34 36 42 28 33 34 36 33 32 35 40 42 40 41 41 40 40 40 42 43 43 42 42 42 43 43 44
34 31 26 22 26 26 28 32 33 35 36 37 36 38 36 38 41 42 42 43 43 43 44 44 45 44 44
32 22 22 24 26 31 34 32 28 29 34 36 38 39 38 41 42 44 45 44 43 43 43 43 41 39 37
26 24 28 30 28 27 26 28 30 33 36 36 38 40 42 44 45 46 44 42 40 37 34 32 31 30 31
27 29 26 27 26 27 31 32 31 36 41 35 45 42 43 41 37 32 28 24 22 23 24 26 28 29 29
25 26 26 29 30 31 33 35 36 37 39 28 30 24 20 18 15 14 16 19 22 24 26 26 28 29 29
26 27 31 33 34 35 36 34 29 25 18 13 15 12 12 14 14 17 20 23 25 26 28 30 32 32 32
31 33 35 36 36 32 26 18 15 16 17 13 15 13 13 16 17 20 23 25 27 29 31 33 34 35 34
31 31 31 29 26 19 14 13 13 15 20 18 16 17 14 15 18 21 24 25 26 28 30 31 32 34 34
26 24 22 19 16 14 13 14 15 16 20 20 17 21 21 14 16 21 21 21 22 24 27 29 30 33 32
19 17 14 14 14 14 15 16 17 18 21 23 19 22 23 21 15 20 21 22 23 25 28 28 29 31 33
16 13 13 14 15 15 17 18 19 20 22 23 24 24 25 25 24 20 24 22 25 27 31 31 30 31 31
14 14 15 15 16 17 18 20 19 20 23 24 26 27 26 28 30 27 26 31 28 30 35 33 31 32 31
15 16 17 18 19 20 22 22 21 20 21 24 27 29 30 30 32 31 31 32 33 34 36 37 33 32 32
16 17 19 20 21 23 25 25 24 24 24 24 26 29 31 30 32 33 33 34 33 35 37 40 34 32 32
18 20 21 22 23 24 26 27 27 27 27 27 29 32 35 34 30 31 36 33 36 35 36 37 38 32 34

GFSFLT2_700_spd_048.txt.gz
Wind_Speed
45 46 43 37 35 41 31 32 32 28 28 35 32 32 34 37 39 41 41 41 41 42 38 36 38 37 37
37 43 30 21 29 25 34 29 26 27 27 35 34 35 38 40 38 37 38 40 38 39 38 38 39 39 39
30 32 32 26 18 21 17 22 26 27 32 34 36 38 35 32 33 35 37 38 39 41 40 41 41 42 42
31 25 27 19 18 21 24 27 28 31 34 31 32 31 33 35 37 38 39 40 41 42 43 43 43 43 43
27 25 26 23 23 26 25 26 27 29 30 32 32 34 36 38 39 40 42 43 43 42 40 38 37 36 35
27 33 27 27 26 26 26 26 29 31 32 32 36 38 40 41 41 37 33 30 28 26 24 23 23 23 24
25 26 27 26 27 29 29 30 31 34 37 31 39 37 33 28 24 21 19 19 18 19 20 22 24 25 26
27 29 31 32 33 33 34 35 35 35 36 25 24 19 18 19 18 18 19 21 22 24 25 26 27 28 29
31 32 33 34 35 34 33 32 29 26 20 16 17 16 18 19 19 20 22 24 25 26 27 27 28 29 28
28 29 30 31 31 28 25 22 17 16 17 16 16 17 18 20 21 22 25 26 27 27 27 27 28 29 28
27 26 26 25 23 20 16 15 15 16 19 19 18 20 22 21 22 23 27 29 28 27 28 28 29 31 30
26 24 24 22 19 16 16 16 17 18 20 23 22 23 26 23 20 24 30 31 30 29 32 32 32 34 34
24 23 21 20 19 18 18 18 18 21 23 24 26 26 28 27 23 22 28 30 32 33 36 36 36 37 36
21 21 20 19 20 20 20 22 21 23 26 27 28 29 30 30 31 24 24 30 29 34 37 37 38 38 38
21 21 20 20 21 22 23 24 24 24 25 29 31 32 33 33 33 30 28 28 29 30 33 35 34 34 35
20 20 21 22 23 24 26 27 27 27 27 29 31 34 36 36 35 34 33 32 31 34 34 37 34 30 34
21 22 23 23 24 25 27 29 29 30 29 29 30 34 36 36 32 31 33 31 35 35 35 36 38 31 34

GFSFLT2_700_spd_051.txt.gz
Wind_Speed
36 36 39 39 38 39 42 35 27 30 27 31 31 33 32 31 31 33 34 34 35 37 38 38 38 39 39
35 34 36 34 26 29 34 25 26 30 29 31 29 35 33 32 31 34 36 38 39 38 37 36 36 36 37
34 31 28 27 26 26 24 26 21 24 23 24 30 33 34 33 35 37 37 35 34 35 36 37 37 38 38
20 20 17 24 24 24 22 21 22 23 26 29 31 34 35 37 35 33 34 36 36 37 38 38 39 40 40
22 23 21 25 27 29 25 26 29 30 31 32 32 30 33 35 35 36 37 39 40 39 40 40 38 36 34
21 23 25 28 27 27 26 27 30 30 31 31 33 33 36 38 38 39 39 38 34 30 28 26 24 22 19
25 26 27 28 29 30 31 31 32 34 35 33 36 38 40 38 36 31 25 22 19 18 18 18 19 19 20
28 29 30 31 33 34 35 35 35 36 38 34 34 34 30 24 19 18 18 18 19 20 21 22 22 22 22
28 29 30 31 32 32 33 34 33 31 31 25 23 19 19 18 17 19 20 21 23 23 24 24 25 25 25
28 28 28 29 31 30 30 29 28 25 22 16 17 17 18 19 19 20 22 24 25 26 26 27 27 26 26
27 27 27 28 28 27 26 23 21 20 21 18 17 20 21 21 23 23 24 27 28 29 30 30 29 29 28
25 26 26 26 26 25 23 22 20 20 22 22 21 23 25 24 24 24 28 30 32 32 33 34 33 33 33
25 25 25 25 25 23 22 20 20 22 23 25 26 27 28 27 26 24 28 30 33 36 37 38 40 40 39
25 25 25 24 23 22 22 23 21 24 26 27 28 29 31 31 31 26 26 31 30 34 38 40 41 42 42
25 25 25 24 23 23 24 24 24 23 25 30 32 33 33 34 34 33 31 29 31 32 36 39 38 38 38
26 26 26 25 24 25 26 26 26 26 27 29 32 35 35 34 35 36 35 34 31 33 36 38 38 35 36
28 28 28 27 26 26 27 29 28 29 28 29 31 34 35 34 32 32 34 32 33 34 34 36 39 36 35

GFSFLT2_700_spd_054.txt.gz
Wind_Speed
30 32 32 31 31 29 31 27 25 32 30 26 25 27 30 32 30 29 32 34 28 29 29 29 30 31 32
29 33 31 30 25 22 22 25 23 25 22 24 28 30 28 28 28 31 34 34 29 28 30 32 35 37 36
31 26 19 22 19 20 20 22 23 23 18 16 20 21 26 28 30 30 30 31 32 34 35 36 36 34 34
21 21 20 20 20 22 22 24 25 22 22 22 24 25 29 31 31 31 33 33 33 31 33 34 36 36 35
21 22 23 21 20 21 22 23 23 22 22 26 28 29 31 33 32 32 33 35 35 36 36 36 38 39 39
24 24 25 25 25 26 26 26 28 27 27 29 30 32 34 36 36 36 36 38 39 40 40 39 38 34 30
24 25 26 26 27 28 28 29 29 30 29 29 34 34 38 39 40 40 41 41 38 32 27 24 23 21 19
26 26 26 27 27 27 28 29 29 30 30 28 29 33 36 36 34 32 29 25 21 20 20 20 20 20 19
25 26 26 27 26 26 27 28 28 29 29 27 25 24 25 22 19 18 19 19 20 21 21 22 22 22 21
24 25 24 25 26 26 26 26 27 27 27 23 22 20 18 17 17 18 20 22 23 24 25 25 26 26 24
25 24 24 25 25 26 27 27 26 26 25 22 19 21 20 19 19 22 23 25 26 27 27 29 30 29 26
23 24 25 25 26 26 26 25 24 24 25 22 19 22 23 22 21 22 26 28 29 28 30 33 33 32 32
24 24 25 25 25 25 25 23 23 23 23 25 25 24 24 25 25 23 25 26 29 31 34 36 36 36 35
25 25 25 25 25 25 24 24 22 25 26 25 26 26 26 26 27 24 27 29 27 30 32 34 36 38 37
25 26 27 26 26 26 26 24 23 23 24 30 31 30 29 28 27 27 27 27 29 30 32 34 35 36 36
26 27 28 28 27 27 28 28 26 26 26 28 30 33 34 30 31 29 28 29 29 31 32 33 34 34 35
28 29 29 29 29 28 29 30 29 30 28 29 31 34 37 35 31 29 28 29 30 30 31 32 34 33 34

GFSFLT2_700_spd_057.txt.gz
Wind_Speed
23 22 23 24 22 19 20 19 21 21 19 18 22 24 28 31 34 34 36 35 30 28 28 28 29 30 27
23 25 26 20 19 20 17 17 19 20 20 16 14 16 21 25 28 30 31 30 30 29 26 26 26 27 27
17 16 14 15 16 18 16 19 20 20 20 18 16 15 16 17 19 22 25 25 25 26 26 26 28 30 32
15 18 18 19 19 19 18 19 19 20 20 20 19 20 23 24 26 26 27 27 28 30 31 30 30 30 31
19 20 20 19 19 20 20 20 21 21 23 23 24 24 24 25 27 29 29 30 31 31 31 33 33 33 34
20 21 20 20 21 22 22 22 23 21 22 24 25 28 28 29 31 32 33 34 35 35 36 37 38 38 39
22 23 23 22 22 22 23 23 23 23 21 22 26 27 29 30 32 34 35 36 37 38 39 37 36 36 34
23 23 23 22 23 23 23 23 23 23 22 20 23 25 27 26 27 28 30 29 26 25 24 22 20 19 19
22 22 22 22 22 23 23 23 23 24 24 24 23 23 23 21 20 21 21 21 19 19 19 19 19 20 21
21 22 22 22 22 22 23 24 24 25 25 24 26 24 20 20 18 19 20 20 21 22 22 22 23 24 24
21 22 22 23 23 23 24 24 25 27 25 25 23 24 21 18 18 22 21 22 23 24 25 26 27 28 27
21 21 22 23 23 23 24 25 26 27 28 26 23 23 22 20 18 21 23 24 24 26 27 28 29 31 32
21 22 23 24 24 25 25 25 26 28 28 28 27 25 23 23 22 22 24 24 26 27 29 31 31 33 33
22 23 24 25 26 26 27 28 27 30 30 29 29 27 25 26 26 22 25 24 25 29 30 29 30 32 34
23 24 25 26 27 28 28 29 28 27 28 33 35 33 29 28 28 26 25 25 27 27 30 29 27 29 31
24 25 26 26 27 28 29 30 29 28 26 29 32 35 34 30 32 29 27 27 28 30 30 30 28 28 30
25 26 27 27 28 28 30 31 29 28 27 28 30 35 36 34 30 30 26 27 28 27 28 28 28 25 29

GFSFLT2_700_spd_060.txt.gz
Wind_Speed
22 21 21 21 22 18 17 19 18 17 16 19 20 21 20 22 26 33 35 39 39 43 38 35 36 36 33
21 21 17 15 12 11 14 15 16 19 19 20 22 21 20 16 18 23 26 29 32 34 33 34 33 31 30
16 13 13 15 15 16 17 17 18 18 19 21 20 19 19 20 19 18 20 22 24 26 27 30 30 30 29
9 14 16 17 18 19 19 20 20 19 20 21 22 22 21 20 21 23 25 26 26 27 28 28 29 30 31
16 18 18 18 19 20 21 22 22 22 22 23 23 23 23 23 24 25 26 27 29 29 29 29 30 31 31
19 20 20 21 21 22 23 23 23 23 23 23 24 24 23 24 25 27 29 31 32 33 33 34 34 34 34
21 22 22 23 23 23 23 23 23 21 21 23 23 23 24 24 25 27 29 30 31 32 32 33 35 36 37
21 22 22 22 23 23 23 23 22 21 20 21 23 24 24 24 26 27 27 28 29 29 28 27 26 26 26
20 21 21 21 22 22 23 23 22 22 21 22 24 25 25 25 25 26 26 26 25 26 24 22 21 21 20
20 20 20 20 21 22 23 23 23 23 23 23 26 25 24 25 25 25 25 25 26 25 25 24 23 22 22
20 20 20 20 21 21 22 23 24 24 25 25 26 27 26 24 25 27 25 26 26 26 26 27 27 26 25
21 21 21 21 22 23 23 24 26 26 27 27 27 27 27 24 23 24 29 31 29 27 28 29 29 29 28
21 21 22 22 23 24 24 25 26 28 29 29 29 28 28 27 23 23 28 29 30 30 31 31 31 31 30
22 22 23 23 24 25 26 26 27 29 30 31 31 30 29 29 27 24 28 29 28 31 33 32 32 32 31
24 24 24 25 26 26 27 27 28 29 31 33 34 33 31 30 27 26 28 29 29 30 33 33 33 32 31
25 25 26 26 27 27 28 28 29 30 30 32 33 34 35 32 30 27 29 29 29 31 33 34 31 30 30
26 26 27 27 28 28 29 29 30 30 30 31 32 34 36 33 30 27 27 30 31 30 33 31 32 26 28

GFSFLT2_700_spd_063.txt.gz
Wind_Speed
23 22 21 20 19 19 18 16 15 15 14 16 18 21 19 19 20 21 23 26 30 31 32 39 40 42 44
24 21 19 16 11 11 12 15 16 16 16 17 18 19 19 18 18 18 18 20 22 24 28 28 33 38 40
16 15 12 12 14 15 17 18 18 18 18 19 20 20 20 19 19 19 20 21 21 22 24 27 27 28 28
8 11 13 15 17 18 19 20 20 21 21 22 23 23 22 21 21 21 21 22 23 25 27 28 29 29 28
15 15 17 18 19 20 21 22 22 23 23 23 24 23 22 23 22 23 23 24 24 25 26 28 30 30 30
19 20 21 20 21 22 22 23 23 22 23 24 23 23 22 22 22 23 23 24 25 27 28 29 30 31 33
21 23 24 22 22 22 22 22 22 22 23 24 23 22 22 22 23 24 25 26 27 28 29 29 30 31 31
21 23 23 23 23 23 22 22 22 22 22 22 22 22 23 23 24 25 26 27 28 30 30 29 29 28 27
22 23 23 23 22 22 22 22 22 21 22 22 22 23 23 24 25 26 27 28 28 29 29 29 28 28 25
21 22 22 22 22 22 21 21 21 21 22 22 23 23 24 25 26 27 28 29 29 29 29 29 28 27 26
21 21 22 22 22 22 21 21 21 22 22 23 24 25 25 26 28 29 29 29 28 29 29 28 28 29 27
22 22 22 23 22 23 22 22 22 23 23 24 25 26 27 27 28 28 30 31 31 30 30 29 29 29 29
22 22 23 23 23 24 24 24 24 25 26 27 27 28 28 29 29 27 28 29 31 33 34 33 29 29 29
23 24 24 24 24 24 25 25 25 26 26 28 29 29 29 30 29 27 28 29 29 32 35 33 32 31 31
24 25 25 25 25 26 27 27 27 27 28 28 29 31 31 30 28 28 28 28 30 31 34 34 31 32 33
26 26 26 26 27 27 28 28 27 28 29 30 32 33 32 30 31 28 28 30 31 31 33 35 31 29 33
28 28 29 30 30 30 30 29 28 28 29 31 32 34 35 34 31 29 28 29 32 32 33 34 35 29 31

GFSFLT2_700_spd_066.txt.gz
Wind_Speed
22 23 22 23 21 21 20 17 13 12 13 13 13 14 15 17 17 17 17 17 18 18 18 19 20 33 38
22 23 21 19 18 15 13 14 15 14 14 15 16 16 16 17 17 17 17 17 16 17 20 21 28 32 35
13 14 13 13 11 14 16 16 17 17 16 17 18 18 18 19 19 19 18 18 18 19 19 20 21 28 29
11 11 12 14 15 18 18 19 20 19 19 19 20 20 20 20 20 19 19 19 19 19 21 22 24 25 26
14 15 16 16 19 20 19 20 22 23 22 21 20 20 20 20 20 21 20 20 19 19 19 21 22 24 26
16 17 18 18 20 21 20 21 22 22 22 21 20 21 20 19 19 19 20 20 20 21 21 22 23 24 25
17 19 19 20 20 19 20 20 21 21 21 21 21 21 20 19 20 20 21 22 22 23 24 25 25 25 25
18 19 20 20 20 20 19 20 20 21 20 20 20 20 20 20 20 21 22 23 24 25 25 26 27 27 27
18 18 20 20 19 19 20 20 20 20 21 19 19 19 18 19 21 22 23 24 24 26 27 28 29 29 27
17 19 20 20 19 20 19 19 20 19 20 19 19 19 19 21 22 23 24 25 26 27 29 29 30 29 28
18 19 19 20 20 20 20 20 20 20 20 20 21 21 21 21 24 23 25 27 27 28 28 30 30 31 28
19 19 19 20 21 22 21 22 22 21 20 22 22 23 23 22 23 24 26 28 29 29 29 31 31 31 30
19 19 19 20 20 22 22 23 23 23 24 23 24 25 25 24 23 24 26 28 30 30 31 32 32 31 29
20 21 20 21 22 23 24 24 24 26 26 27 26 26 26 26 25 24 28 27 28 30 32 32 32 32 30
23 23 22 23 24 25 26 26 25 27 28 28 28 28 28 28 26 27 27 27 30 31 32 32 30 30 30
26 25 26 25 26 27 28 29 29 29 28 28 28 29 29 27 31 28 27 28 30 32 33 34 30 27 30
27 28 29 30 30 29 29 29 27 27 27 28 30 32 32 29 26 30 30 29 32 32 32 34 35 29 30

GFSFLT2_700_spd_069.txt.gz
Wind_Speed
26 25 24 23 22 22 21 18 16 12 11 13 12 13 14 14 14 16 16 16 17 18 19 19 22 26 29
21 23 23 21 17 16 16 13 15 13 14 15 15 16 16 15 15 16 17 17 17 18 17 15 14 14 18
19 16 14 12 10 9 10 13 16 16 16 17 17 17 18 18 19 19 19 18 18 18 17 17 18 19 20
13 12 11 12 13 14 14 16 16 17 17 19 18 18 19 20 20 20 19 19 19 19 18 18 19 19 20
13 13 13 16 16 17 17 18 18 18 19 18 18 18 18 19 20 19 18 18 17 17 17 18 18 19 20
14 16 16 18 19 17 19 18 18 18 19 17 17 16 17 18 18 18 17 17 16 17 17 18 19 20 21
16 16 17 18 18 18 18 17 17 17 18 16 17 17 17 17 17 17 17 17 17 18 18 20 21 21 22
16 17 17 17 17 18 17 16 16 17 17 17 17 17 17 17 17 18 18 18 19 19 20 21 22 22 23
16 16 16 16 17 18 17 17 16 18 17 17 17 18 17 18 17 18 19 20 20 21 22 22 23 24 25
15 16 16 17 18 18 18 17 17 18 18 17 17 18 18 20 20 20 22 22 22 22 23 24 24 25 26
16 16 17 18 18 18 17 18 18 19 19 18 20 19 20 21 22 22 23 23 24 25 25 25 26 27 27
15 16 17 19 19 18 18 19 20 20 20 21 22 22 22 23 23 24 25 25 25 27 28 29 29 28 29
16 16 18 19 20 19 20 21 22 22 22 23 24 25 25 23 22 24 25 27 27 29 30 29 29 29 29
18 18 20 21 20 20 22 23 24 25 25 25 25 26 26 26 23 23 26 25 28 31 31 29 31 31 30
21 22 23 23 24 24 24 24 24 27 29 29 29 29 28 26 24 25 25 26 29 30 32 31 29 31 32
24 26 26 26 26 27 26 26 27 28 28 30 30 28 28 26 26 25 26 27 30 32 33 34 30 29 32
27 27 28 29 29 30 30 28 27 27 27 28 29 30 28 26 24 27 27 29 31 32 34 35 35 30 32

GFSFLT2_700_spd_072.txt.gz
Wind_Speed
29 22 23 26 23 23 24 23 19 16 11 10 10 10 10 10 10 12 14 15 16 18 20 21 23 25 29
25 24 23 21 22 21 19 17 16 14 13 13 12 13 13 12 13 13 13 14 16 17 18 18 19 20 21
23 22 21 18 16 13 11 11 13 14 14 15 15 16 16 15 16 16 16 16 17 18 19 18 18 18 18
22 21 17 15 14 14 14 16 16 16 16 16 17 18 18 17 19 18 18 18 18 18 19 19 19 18 18
19 17 17 17 17 17 17 18 17 18 17 18 18 19 19 17 18 18 18 18 18 18 18 18 18 18 18
16 16 17 18 18 19 19 19 19 18 18 18 18 18 18 17 18 18 18 18 17 17 17 17 18 19 19
17 18 18 19 19 18 20 20 19 19 18 18 18 18 17 18 18 18 18 18 18 18 18 18 19 19 20
17 17 18 18 18 18 19 19 18 18 18 18 18 18 18 18 18 18 18 18 18 19 19 20 20 21 21
16 17 17 17 16 16 17 17 17 17 18 18 18 18 18 18 18 19 19 19 19 20 21 21 21 22 22
16 16 16 15 15 16 17 16 16 18 19 19 19 18 19 19 19 21 21 22 22 22 22 22 22 22 23
16 16 16 16 16 16 16 16 17 19 20 20 20 20 20 22 22 23 24 24 24 24 25 24 23 23 24
16 17 17 17 17 17 17 17 18 20 21 21 21 22 22 24 25 26 27 26 26 26 27 25 25 25 26
18 18 19 19 19 19 19 19 21 22 23 23 24 25 25 25 25 28 29 30 28 29 28 27 27 27 28
20 19 19 20 20 22 23 21 23 25 25 26 26 26 27 27 26 28 31 30 31 31 29 28 30 30 30
20 25 25 28 31 23 27 26 26 28 28 28 29 29 29 29 28 28 30 28 31 32 32 30 30 32 33
37 36 35 36 33 27 29 30 29 30 30 32 31 30 30 27 27 26 28 29 31 33 34 34 29 32 35
31 31 32 32 32 30 32 32 33 33 32 32 32 32 31 27 27 27 27 31 32 32 35 37 35 29 34

GFSFLT2_700_spd_075.txt.gz
Wind_Speed
30 27 28 28 22 20 24 24 22 20 18 14 11 11 11 11 10 10 12 14 15 14 15 17 19 23 25
30 26 27 26 25 23 23 23 20 17 15 14 13 12 14 14 12 12 13 14 14 14 15 16 17 20 23
30 27 27 24 22 22 20 18 15 12 13 14 14 15 17 15 14 14 15 16 15 16 17 18 19 21 22
28 27 25 22 22 19 15 15 14 14 15 16 17 18 19 18 17 17 18 19 18 18 20 20 21 21 22
26 25 23 21 18 16 17 17 17 17 17 18 19 20 20 19 18 18 18 19 19 19 20 21 21 21 21
23 22 18 17 16 17 18 18 18 19 18 19 20 20 20 19 18 18 18 19 19 19 20 20 20 20 20
17 16 16 16 17 18 19 19 19 19 19 18 19 19 19 18 17 18 18 19 19 19 19 20 20 20 20
16 15 15 17 18 19 18 19 18 19 18 18 18 19 18 18 18 18 19 19 19 20 19 19 20 21 21
15 16 15 18 17 17 17 18 19 19 18 18 18 18 18 18 19 19 19 19 20 20 20 20 21 22 22
20 19 17 18 17 18 18 19 19 19 18 18 18 18 18 19 20 20 21 21 21 21 21 21 22 23 24
17 17 17 17 17 18 19 19 19 18 18 18 19 19 19 20 21 22 23 23 23 24 24 24 24 24 25
17 17 17 17 18 18 19 19 19 19 19 18 21 21 22 23 23 24 26 26 26 26 26 26 26 27 27
17 18 18 18 18 18 20 20 19 19 20 22 22 23 23 25 25 27 29 29 29 29 28 28 28 28 28
18 18 19 19 19 23 29 29 28 25 23 25 25 25 25 27 26 28 32 33 33 33 31 29 29 30 29
21 22 23 25 32 37 35 31 31 27 26 27 27 27 28 29 29 30 32 33 37 36 33 29 30 31 30
25 29 34 37 34 31 30 31 31 32 30 31 31 31 31 30 31 30 31 32 36 35 36 32 27 31 32
30 27 27 26 26 26 26 27 29 31 33 34 34 34 34 32 31 32 31 33 35 36 36 34 29 27 32

GFSFLT2_700_spd_078.txt.gz
Wind_Speed
33 30 28 25 24 25 26 26 21 26 26 22 19 17 15 13 10 10 11 12 14 15 15 17 19 23 22
33 31 27 26 24 24 25 25 26 23 22 19 17 15 14 14 12 11 12 13 14 15 16 18 21 23 27
32 30 29 28 25 26 23 23 22 19 16 14 15 15 15 14 14 13 14 14 16 15 16 18 19 21 24
31 30 28 27 24 23 21 21 17 13 13 13 14 16 15 16 16 16 17 17 18 18 18 20 21 21 22
30 28 27 25 23 21 20 17 16 15 15 15 17 17 17 17 17 17 18 19 19 19 19 20 22 22 22
26 24 23 24 23 17 17 16 16 17 18 17 18 18 18 18 17 17 17 18 18 18 19 19 20 21 21
22 21 17 13 16 15 16 17 18 17 18 18 19 18 18 17 16 17 17 18 17 17 19 19 19 20 20
16 14 15 11 16 17 17 17 18 17 18 18 18 17 17 16 16 17 17 18 18 18 18 19 19 19 20
13 13 13 12 15 17 17 16 17 17 16 16 17 17 17 16 16 17 18 18 18 18 18 18 18 20 20
13 10 11 17 16 15 15 14 17 17 16 16 17 17 17 16 17 17 18 18 18 18 19 19 19 21 21
11 13 14 15 19 15 13 17 16 16 15 16 17 16 15 16 19 20 20 20 20 20 20 20 21 22 23
14 16 18 15 14 15 17 16 16 15 15 15 16 16 18 19 21 21 21 21 21 23 23 23 24 25 26
16 14 15 14 19 20 17 17 16 21 28 28 25 25 19 21 21 22 24 24 24 26 26 25 27 28 29
15 14 15 17 18 19 19 21 28 30 30 28 26 23 21 23 22 24 27 28 28 30 29 28 29 31 31
15 16 20 23 24 24 25 30 35 33 28 26 27 29 28 28 27 28 30 30 33 34 32 30 31 32 31
20 19 24 25 30 33 32 29 28 27 25 26 27 29 30 30 30 29 29 31 35 36 37 36 30 32 33
22 26 32 28 24 24 22 21 21 23 24 24 26 28 29 29 31 30 30 32 34 35 37 37 34 30 34

GFSFLT2_700_spd_081.txt.gz
Wind_Speed
31 31 30 30 28 26 24 26 23 26 27 24 29 26 22 19 16 15 14 14 16 17 17 16 17 21 23
30 31 31 30 28 25 23 22 26 26 25 28 25 22 19 17 16 14 13 12 13 15 17 17 18 21 25
30 30 30 30 28 26 25 26 25 23 21 21 18 17 15 16 15 15 14 13 14 15 17 19 20 23 25
31 30 29 28 27 26 25 24 22 21 18 16 14 13 14 16 16 16 16 16 16 17 17 19 20 22 23
32 30 29 27 26 24 23 22 21 19 17 17 16 16 16 17 17 18 18 19 19 19 19 20 21 22 23
30 29 26 24 23 22 20 20 17 16 17 17 16 17 17 18 18 18 18 18 19 19 19 19 20 22 22
25 24 22 20 18 16 14 13 12 15 17 16 17 18 18 18 18 18 18 18 18 18 18 19 20 21 21
19 18 16 14 13 12 12 12 13 16 17 16 17 18 17 17 17 17 17 17 17 17 17 17 18 19 20
14 13 11 10 10 11 10 14 13 15 14 14 14 16 16 15 16 16 16 17 16 16 17 17 18 19 19
9 8 9 9 10 8 9 12 11 10 12 16 15 14 14 15 15 15 15 15 15 16 17 17 18 19 20
13 13 13 12 12 12 15 15 11 12 15 15 12 13 15 14 13 13 16 17 18 19 20 19 20 21 22
13 14 14 13 14 13 12 11 12 15 15 13 11 18 22 20 22 24 19 20 22 22 22 22 23 24 25
16 17 16 16 13 13 14 15 14 13 14 18 23 25 23 23 24 23 22 22 23 24 24 24 25 26 27
16 17 15 13 11 13 14 15 16 19 25 28 29 26 22 23 24 26 25 25 25 26 26 26 27 28 29
17 17 15 15 15 17 19 21 22 26 32 31 26 24 24 25 25 27 27 28 30 30 28 28 29 31 30
17 18 18 18 18 20 24 27 27 24 22 21 20 20 20 22 23 26 27 30 31 31 31 31 29 32 31
21 21 21 22 24 28 26 22 21 20 21 20 21 22 23 23 25 27 29 31 32 33 33 33 30 30 32

GFSFLT2_700_spd_084.txt.gz
Wind_Speed
32 30 30 29 28 28 27 26 27 26 29 25 29 29 25 28 27 23 20 18 18 19 21 20 19 21 25
31 31 31 31 30 30 28 28 26 27 24 30 31 27 24 24 22 20 17 15 14 14 17 17 17 19 18
31 30 31 31 31 31 30 28 27 27 27 25 23 24 22 21 18 18 15 14 14 14 15 16 18 19 22
31 32 32 32 31 30 29 28 27 26 23 22 21 20 16 16 16 17 16 16 15 16 16 17 19 21 24
34 34 33 32 31 29 28 26 25 23 22 20 20 16 16 16 16 17 16 17 17 17 18 20 20 22 24
34 33 31 29 27 25 24 22 22 20 19 17 18 17 17 17 17 18 18 19 19 19 20 22 22 23 24
31 29 26 25 23 21 20 18 15 15 15 14 15 16 17 17 18 18 18 18 19 20 20 21 21 23 24
29 26 23 20 17 15 13 12 11 12 12 12 16 18 17 17 17 17 17 18 18 18 18 19 20 21 23
25 22 18 15 14 12 12 11 10 11 12 13 12 15 15 15 16 15 16 16 17 17 16 17 18 19 21
19 17 15 13 12 10 10 9 8 11 12 9 11 13 13 13 13 15 15 15 15 15 15 17 18 19 20
16 15 14 14 13 13 12 11 12 13 12 12 13 13 12 11 16 16 16 14 14 15 16 17 19 20 20
18 17 15 13 13 13 13 16 14 13 13 14 14 14 13 16 20 22 21 26 26 28 26 23 22 24 24
18 19 18 16 16 14 14 14 13 14 15 14 14 18 21 23 24 25 26 26 25 24 23 24 25 26 26
21 20 20 17 16 16 17 16 15 15 17 19 20 25 27 29 25 24 24 24 25 26 26 26 27 28 29
21 20 20 18 18 18 18 17 17 19 22 24 27 30 26 23 22 23 24 25 26 26 27 29 30 31 32
24 22 21 20 19 20 20 19 20 24 26 25 22 20 19 18 19 22 24 25 26 26 28 28 29 31 32
24 23 22 22 21 21 23 24 27 25 21 21 21 20 20 21 22 24 26 27 28 29 29 30 30 32 34

GFSFLT2_700_spd_087.txt.gz
Wind_Speed
32 29 29 29 29 29 30 30 30 29 29 31 30 29 29 31 28 23 21 22 21 21 19 22 22 22 24
30 30 30 30 29 29 30 30 30 29 30 28 29 28 28 27 23 22 22 20 18 17 16 18 19 21 21
30 27 29 30 31 31 31 32 32 30 29 28 26 25 21 24 23 20 18 16 14 14 13 12 14 16 16
28 28 30 31 33 33 33 32 30 29 27 26 25 23 20 19 17 15 15 15 14 14 13 13 14 16 17
30 29 29 30 31 31 31 30 29 28 26 24 22 20 19 16 13 13 13 15 14 14 14 14 15 18 19
29 29 28 28 30 29 28 27 26 25 22 20 20 17 15 14 14 12 14 15 15 16 16 17 18 18 20
28 29 30 30 29 27 26 24 22 21 20 16 15 12 12 13 12 12 15 16 17 17 17 18 19 20 21
29 28 29 30 26 24 22 20 16 14 12 11 11 11 11 11 15 16 16 16 16 16 17 17 18 19 21
29 28 26 24 22 20 17 16 14 13 11 11 11 11 11 11 13 13 13 13 13 14 14 15 15 16 18
27 26 22 20 17 17 15 14 14 12 11 11 10 10 10 11 11 11 11 12 12 13 13 13 14 16 17
25 23 19 16 14 14 13 13 12 12 12 10 11 11 10 10 9 8 11 13 13 12 12 15 15 15 16
24 21 18 17 17 18 17 15 16 15 15 13 13 13 13 11 13 15 16 17 17 19 21 20 23 24 22
24 22 20 18 17 17 17 17 17 14 12 13 15 17 15 14 18 20 23 23 22 24 24 23 22 21 22
25 23 21 22 20 19 19 18 17 17 16 16 17 19 20 21 26 29 28 22 20 20 21 21 22 23 24
26 25 23 23 22 21 19 20 18 17 17 17 19 23 26 29 27 23 20 19 19 20 21 22 23 25 26
29 27 25 24 23 21 21 21 20 20 19 20 23 24 23 21 18 18 17 17 17 18 19 20 22 25 26
31 29 28 27 24 23 21 21 21 23 24 25 24 21 20 18 19 21 22 21 21 22 22 22 24 26 27

GFSFLT2_700_spd_090.txt.gz
Wind_Speed
27 26 27 26 27 28 27 27 28 28 28 29 30 30 31 30 29 26 23 23 20 20 20 18 21 22 26
28 28 27 26 26 26 27 27 27 28 29 29 28 29 28 29 26 25 23 21 20 20 17 16 16 21 23
30 28 27 26 26 27 29 30 30 30 30 30 29 29 27 26 24 21 20 18 17 14 14 14 13 18 19
28 27 25 27 29 30 30 29 29 29 29 28 26 26 24 21 20 17 15 13 13 12 11 13 12 14 14
27 27 26 26 28 28 29 29 27 26 26 25 24 22 20 18 17 14 12 11 11 10 10 11 12 12 12
26 26 25 27 28 29 29 29 27 26 24 23 21 19 16 16 14 12 11 11 10 11 10 13 12 13 14
26 26 27 28 29 30 29 27 24 24 22 19 17 15 13 12 12 10 10 11 11 11 11 13 15 15 16
26 27 28 29 29 28 27 24 22 20 17 12 12 10 10 10 10 10 11 11 11 12 14 16 16 16 17
26 28 27 28 28 26 21 21 17 16 13 11 10 10 10 11 12 12 10 11 11 11 12 14 15 15 16
27 26 27 27 25 21 18 18 15 13 11 11 10 10 10 11 10 10 9 8 9 10 11 12 12 12 13
26 26 26 25 22 19 17 15 13 13 10 10 10 10 10 11 11 10 9 9 9 10 12 13 11 11 11
24 24 23 23 20 18 17 16 16 15 14 12 15 15 12 12 11 12 12 12 12 12 13 16 17 18 18
24 25 22 23 22 21 19 19 17 15 16 14 13 15 14 15 16 16 15 18 20 22 21 22 24 23 21
27 26 23 22 24 23 22 21 20 18 17 15 15 15 16 16 19 21 21 24 26 22 19 18 18 18 19
31 27 25 24 24 25 24 23 22 20 19 18 17 17 17 19 23 25 25 20 17 15 15 16 17 19 20
33 31 28 28 27 27 26 25 22 20 20 19 19 20 19 22 21 19 16 15 14 14 14 15 17 18 20
36 35 34 33 31 29 26 26 23 22 22 21 22 23 24 22 18 18 17 18 19 18 18 18 19 20 21

GFSFLT2_700_spd_093.txt.gz
Wind_Speed
25 25 26 26 26 27 26 27 25 24 25 26 28 28 29 29 30 30 29 25 23 21 20 22 21 23 23
28 28 27 27 27 25 26 26 26 27 28 30 31 32 31 30 30 28 25 24 22 21 20 20 19 21 22
29 30 29 28 27 25 25 26 28 29 29 30 30 30 30 29 29 24 23 20 19 19 17 15 16 17 18
32 31 30 28 27 26 26 28 28 27 28 28 28 28 27 26 24 23 20 17 16 14 12 12 12 13 12
34 32 29 28 27 28 28 27 26 27 28 27 27 26 24 22 21 20 16 15 13 11 11 10 11 9 10
35 32 30 29 29 28 27 27 28 27 26 25 26 24 22 21 19 16 14 13 12 11 11 11 10 9 10
36 33 29 29 29 26 27 27 27 25 25 24 22 20 17 17 15 13 12 12 11 12 11 12 12 12 12
34 32 30 28 26 26 27 26 25 24 22 18 16 14 13 12 12 12 11 11 10 10 12 13 13 12 14
33 32 29 27 25 25 25 25 24 21 18 14 14 13 10 11 12 13 13 12 11 10 10 12 12 13 15
33 30 27 25 24 25 24 23 20 19 16 13 13 12 11 12 13 11 11 11 11 10 11 13 12 12 13
31 28 26 24 22 22 22 21 19 18 15 14 14 12 13 13 12 11 11 11 9 9 10 12 12 13 12
30 28 26 23 22 21 21 20 17 17 16 14 13 14 15 15 12 12 13 14 12 11 10 10 13 15 14
29 27 26 24 22 21 21 21 20 20 19 19 16 17 16 17 15 15 17 17 16 16 17 18 19 22 24
30 30 27 24 22 21 21 23 21 19 20 18 19 17 15 17 16 18 19 20 22 23 24 23 20 21 21
33 30 28 27 25 23 22 24 23 22 23 22 19 19 18 18 17 18 20 25 27 24 19 17 17 18 19
34 33 31 29 27 26 24 24 26 26 24 21 22 22 20 19 19 19 22 21 18 16 15 15 15 17 18
38 35 31 31 30 27 27 28 28 27 25 23 23 24 22 22 21 22 21 19 18 17 18 19 20 20 20

GFSFLT2_700_spd_096.txt.gz
Wind_Speed
27 26 24 24 25 26 26 27 27 26 25 24 23 26 28 28 30 30 31 31 30 28 26 25 24 24 24
31 27 24 25 26 28 28 28 28 26 25 25 25 27 29 28 29 29 30 29 28 25 23 22 22 22 20
28 27 26 27 28 29 28 28 28 27 26 27 26 27 28 29 27 27 28 28 24 22 21 20 19 18 18
33 28 27 28 30 29 30 30 28 28 26 26 28 29 28 28 28 27 26 25 22 19 18 16 15 14 15
35 34 30 30 30 31 31 29 29 26 26 26 28 29 28 28 28 25 23 22 20 17 14 13 13 13 13
38 36 33 31 32 32 31 30 28 27 26 27 28 28 27 26 25 22 20 19 18 16 13 13 13 13 11
41 43 30 30 34 32 31 29 27 26 26 27 27 27 24 23 21 19 17 16 15 13 13 14 14 14 12
38 42 35 32 33 32 29 28 27 27 27 26 25 24 20 18 17 14 13 13 14 12 13 14 14 13 13
38 36 35 35 33 30 28 28 27 26 26 24 22 21 18 16 14 13 13 14 14 14 14 15 16 15 15
38 35 34 34 30 29 29 27 27 26 25 22 21 20 17 15 15 14 15 16 17 17 15 15 14 12 13
42 38 34 31 29 28 27 26 25 25 23 20 20 19 17 16 15 14 14 15 15 15 14 13 11 12 13
37 34 31 29 29 28 26 25 24 24 22 20 19 18 18 17 16 15 15 15 15 15 14 11 10 12 14
34 32 30 32 31 28 25 24 23 23 22 21 21 21 19 18 19 19 17 17 17 17 17 15 16 17 16
34 34 36 34 30 28 26 24 24 23 24 23 24 24 22 19 19 20 19 20 20 21 19 20 21 23 23
38 38 38 34 31 29 28 26 23 23 25 24 24 24 23 21 20 20 20 21 21 22 23 26 24 21 20
41 41 41 36 33 32 30 27 25 25 27 26 25 26 24 25 23 22 23 23 21 22 22 19 16 15 16
41 41 42 41 39 36 34 31 28 28 27 28 28 27 26 26 26 26 25 24 21 20 19 18 16 16 16

GFSFLT2_700_spd_099.txt.gz
Wind_Speed
41 36 37 29 25 22 23 22 24 25 26 26 25 24 23 25 25 25 25 26 26 26 26 27 26 26 25
30 25 30 24 25 26 23 24 25 25 26 26 25 25 25 25 25 25 25 25 25 25 25 24 23 23 22
27 28 31 31 30 26 24 24 25 26 26 26 25 24 25 25 27 27 25 26 26 26 25 23 20 20 19
40 38 40 40 31 25 26 26 27 27 27 26 26 25 24 26 28 26 25 26 26 27 25 21 17 16 16
40 40 36 32 31 27 30 29 27 27 27 26 26 24 26 28 28 25 25 25 25 25 22 18 16 14 13
41 36 35 33 33 33 32 29 27 25 26 26 25 25 27 29 27 26 25 24 24 23 20 17 15 13 12
41 42 37 37 37 36 33 30 28 26 25 26 24 26 28 28 25 25 22 22 22 21 18 16 14 12 12
43 41 41 42 43 34 29 27 29 26 24 24 25 27 28 26 23 21 21 20 19 18 16 15 14 13 13
46 35 53 53 43 33 26 27 28 26 23 26 25 26 27 24 21 20 19 17 17 16 14 14 13 14 13
56 49 51 33 33 31 30 28 27 25 25 27 25 25 24 21 20 19 18 16 16 17 16 16 15 14 14
48 49 39 40 36 31 30 29 27 26 26 26 24 24 23 21 20 20 19 18 18 18 17 16 16 14 14
47 46 44 41 38 34 32 32 30 28 28 24 23 23 22 22 21 19 19 18 17 16 15 14 13 12 12
47 43 38 32 36 38 36 34 31 29 27 25 23 23 23 22 20 20 20 19 17 17 17 16 14 13 15
42 40 36 39 40 38 36 34 31 29 27 25 23 24 24 24 23 21 22 21 19 18 18 18 17 17 20
44 41 40 41 41 39 37 35 32 29 27 25 25 26 26 26 25 23 22 23 22 21 20 20 20 23 25
44 40 41 43 41 40 39 36 32 30 28 27 27 29 28 28 27 25 24 24 23 21 20 21 22 24 22
37 39 45 45 44 43 42 39 36 34 32 29 28 28 29 28 25 25 26 25 24 22 21 22 20 19 18

GFSFLT2_700_spd_102.txt.gz
Wind_Speed
50 45 44 46 44 43 43 36 26 24 24 26 25 23 23 23 22 23 22 22 22 21 23 24 22 23 24
42 39 38 39 39 39 40 29 26 21 19 22 22 22 22 22 22 22 22 22 22 22 24 25 22 22 22
36 31 29 31 31 33 26 24 23 18 20 20 22 24 23 21 22 22 21 22 22 24 25 25 22 22 20
29 28 25 25 27 30 30 26 25 21 23 23 23 23 23 22 21 22 23 23 23 24 24 24 21 20 17
36 38 38 43 43 35 37 36 32 26 25 24 24 24 22 21 22 23 24 23 22 24 24 22 19 17 15
48 44 46 37 44 43 45 42 32 27 26 26 25 23 23 22 22 22 24 22 22 23 22 20 17 16 13
45 41 46 39 35 39 37 34 37 31 31 27 24 24 25 24 23 24 22 22 21 22 21 18 15 14 14
47 45 43 39 38 40 44 45 45 40 32 25 25 25 26 25 24 23 21 21 20 21 18 15 13 14 13
50 44 40 42 44 43 48 40 39 26 27 23 26 25 27 26 24 23 21 20 20 19 16 14 13 12 13
48 45 46 39 40 39 40 33 34 24 24 23 27 28 29 26 24 23 21 20 19 18 16 14 14 14 15
45 49 43 47 45 35 35 31 27 26 25 26 29 30 31 26 23 23 22 20 20 17 16 17 17 16 16
46 47 47 45 41 35 41 34 26 29 30 32 32 31 30 27 24 23 23 21 19 17 17 17 17 16 15
48 48 48 53 39 43 39 41 38 36 34 34 31 31 29 25 24 24 23 20 19 18 18 17 16 16 14
48 42 48 42 54 49 41 44 42 39 37 35 32 31 27 25 25 26 24 22 20 19 19 18 18 17 16
41 48 43 47 47 35 39 42 39 39 35 34 32 30 28 27 27 26 23 22 22 22 20 20 20 20 18
36 41 41 48 41 41 41 37 38 36 35 35 33 32 29 27 28 27 26 24 24 24 23 22 21 21 19
38 37 35 36 39 45 42 40 44 41 40 39 37 34 30 28 29 28 28 27 26 24 25 24 22 21 20

GFSFLT2_700_spd_105.txt.gz
Wind_Speed
57 52 51 53 49 48 40 44 42 44 46 44 39 32 24 24 24 22 23 22 21 21 21 20 19 18 20
59 52 46 43 40 43 36 39 39 46 44 44 37 30 22 25 25 23 23 23 22 21 21 21 20 20 19
35 39 43 40 37 37 39 40 45 44 42 34 29 23 23 24 24 24 23 22 22 21 21 22 20 19 20
38 39 36 34 30 29 34 38 39 36 32 30 27 22 23 26 26 25 23 23 21 21 21 22 20 19 19
32 34 35 31 30 24 28 27 29 28 28 28 25 24 28 27 27 25 24 23 22 23 21 21 19 19 17
42 40 37 37 34 33 33 39 36 38 33 33 31 27 27 27 25 25 25 23 24 22 21 20 20 18 16
47 44 45 40 42 43 36 31 41 38 44 41 35 28 28 26 26 27 25 25 23 21 22 20 20 16 15
51 48 45 46 41 44 41 32 36 40 36 45 38 31 30 27 28 27 26 25 23 21 22 21 18 16 16
54 54 51 51 45 45 50 47 43 44 40 42 42 37 32 30 29 28 28 25 24 22 22 20 18 17 17
57 55 54 53 51 48 44 42 42 48 49 53 49 41 38 28 27 29 28 27 25 22 22 19 17 16 17
56 54 49 51 49 47 52 46 43 46 45 41 38 28 27 28 26 31 29 28 24 23 22 19 18 19 18
50 52 41 44 52 51 46 47 38 42 38 40 35 30 30 31 35 34 31 27 25 24 23 20 20 21 20
43 43 49 40 53 42 52 43 48 46 44 42 38 38 36 37 35 31 30 27 26 25 24 23 23 21 19
42 37 38 42 46 48 48 54 51 50 53 43 35 34 35 34 34 32 29 29 27 27 25 24 23 21 19
36 41 39 42 39 42 45 45 44 51 53 45 39 38 39 39 37 32 31 30 28 27 26 25 23 22 22
36 35 39 35 38 37 39 46 45 52 48 41 40 45 43 40 36 34 32 30 29 29 28 27 25 24 23
35 32 33 35 35 37 38 39 41 40 42 52 52 45 42 39 36 34 31 31 30 30 28 27 27 26 25

GFSFLT2_700_spd_108.txt.gz
Wind_Speed
53 53 50 49 52 55 51 46 50 51 48 50 45 41 43 45 39 39 30 31 28 26 25 24 23 23 24
53 51 55 57 58 61 63 60 49 46 37 42 41 44 45 43 43 40 26 29 30 28 26 26 24 25 24
38 42 48 56 61 48 47 45 46 41 43 43 49 47 47 44 43 33 32 33 30 28 28 27 26 25 24
37 37 34 34 29 34 39 40 38 41 38 43 45 45 43 39 34 32 33 33 30 30 28 28 28 25 24
29 33 34 37 33 30 31 33 35 37 39 40 41 40 39 35 33 35 33 32 31 31 31 29 27 25 23
46 42 35 34 34 30 33 32 32 31 30 33 38 36 35 36 35 34 33 33 31 31 31 29 27 25 23
50 49 46 45 32 40 38 35 38 35 29 30 33 33 35 39 36 36 34 31 31 33 31 28 27 24 24
56 53 52 50 49 43 39 40 42 41 40 35 39 37 42 44 40 37 34 33 33 32 30 28 26 25 25
60 60 58 53 52 49 51 42 49 51 48 48 42 42 39 44 47 38 35 35 34 33 30 27 26 26 24
61 62 61 60 55 58 47 51 56 44 48 48 44 44 48 50 48 44 42 35 34 34 29 27 26 25 25
55 59 61 62 59 57 59 57 57 50 58 52 50 47 48 52 45 48 44 37 36 33 30 29 28 26 25
48 50 58 57 57 56 54 62 62 58 49 46 51 52 50 55 51 49 48 39 35 33 32 30 29 27 27
47 48 49 53 53 51 48 51 58 47 54 59 47 46 48 54 41 36 42 41 34 34 31 30 29 29 29
44 47 47 48 48 47 48 44 53 58 54 47 53 43 47 44 38 40 43 42 36 32 32 32 31 31 30
35 36 41 39 41 43 46 51 47 47 57 54 53 53 48 47 48 49 45 41 38 35 34 32 33 31 29
30 32 27 33 32 45 41 43 51 46 42 49 49 56 60 55 57 52 46 42 38 36 35 35 33 32 30
26 23 26 32 36 34 33 46 36 44 42 46 48 52 54 49 47 48 45 41 37 37 35 35 34 32 31

GFSFLT2_700_spd_111.txt.gz
Wind_Speed
44 43 42 41 43 55 61 56 60 61 63 58 50 45 44 42 39 38 39 41 38 34 35 33 31 31 28
32 36 39 40 43 49 49 51 61 57 51 52 48 52 48 45 45 46 39 43 39 39 37 33 32 31 30
32 36 34 35 45 39 35 41 51 52 58 54 49 45 42 43 40 39 46 41 43 42 34 35 33 32 30
31 31 32 33 32 33 36 37 34 38 40 39 40 41 41 41 45 46 42 42 43 38 37 35 34 32 31
41 42 40 35 34 33 34 36 35 33 35 35 39 40 40 40 42 40 38 41 37 38 35 34 34 32 31
47 48 49 47 41 37 36 35 33 29 26 31 33 37 38 37 34 34 35 35 38 38 35 35 34 33 30
55 53 53 50 47 47 45 38 33 31 32 32 26 28 29 30 32 32 35 37 40 36 35 34 33 32 31
59 59 58 55 53 52 52 48 49 39 37 38 33 32 26 28 30 32 36 41 41 38 36 35 34 32 31
56 60 61 60 57 53 54 56 49 51 40 42 41 41 40 36 36 37 38 43 44 40 38 37 35 34 33
48 50 55 57 58 58 56 56 58 58 53 50 45 44 49 49 41 41 40 41 48 45 41 38 37 35 34
53 51 49 51 55 55 57 57 58 63 61 52 52 46 50 57 51 46 49 41 46 48 44 40 39 36 34
50 51 51 49 48 51 53 58 59 59 60 53 54 56 46 48 52 49 44 47 52 48 49 44 40 38 36
44 44 46 50 47 46 50 55 60 60 57 54 62 54 57 46 45 52 51 46 44 50 52 49 41 39 35
40 40 38 39 44 46 44 50 55 61 61 57 60 59 57 58 49 48 49 50 49 54 50 48 44 41 36
36 37 36 36 36 38 39 41 46 52 57 46 57 49 59 55 60 48 44 47 50 57 52 51 46 40 37
33 34 33 32 32 29 27 33 32 42 49 53 52 51 56 55 55 54 54 42 43 44 49 46 41 40 37
29 28 27 27 26 26 31 30 31 34 41 55 43 54 50 56 49 56 52 46 48 43 46 42 36 36 34

GFSFLT2_700_spd_114.txt.gz
Wind_Speed
39 36 35 32 29 34 41 43 42 51 55 48 43 45 49 54 53 42 38 41 38 35 35 39 34 34 33
49 38 37 36 37 36 37 34 33 41 48 54 53 56 60 59 54 44 42 38 41 41 34 39 38 36 32
42 44 37 23 22 28 26 30 33 36 35 42 55 54 54 51 49 48 48 43 41 41 44 38 42 37 35
38 37 40 33 33 31 35 31 36 38 33 38 39 44 54 50 51 49 47 43 41 40 38 42 36 38 39
46 44 40 38 38 35 35 35 35 36 35 33 35 33 32 38 43 43 42 42 40 40 42 38 36 39 39
50 49 48 47 46 48 46 44 41 34 35 35 36 32 31 35 36 35 34 34 36 44 36 33 36 37 35
50 51 52 52 53 51 50 52 52 48 41 39 37 33 28 25 25 27 31 35 34 30 33 38 36 36 33
49 50 51 52 52 54 55 56 55 51 46 47 38 37 32 25 21 25 29 30 27 30 32 34 37 36 33
42 45 47 49 50 53 53 55 58 57 53 51 51 45 38 35 29 27 29 29 32 33 36 37 39 36 33
39 41 43 43 44 47 49 54 55 57 54 54 54 48 49 37 38 34 33 33 34 36 37 40 42 37 34
43 41 39 40 42 43 46 50 51 56 56 54 57 56 51 51 44 38 37 41 40 39 41 41 43 42 39
41 39 40 39 39 40 41 44 49 54 53 56 59 58 56 58 55 47 44 49 49 44 43 41 39 42 43
39 39 38 38 39 40 40 40 44 49 53 53 56 58 58 59 60 54 51 44 49 51 47 50 43 42 41
37 36 35 36 35 35 38 40 41 42 46 51 54 55 57 57 59 58 50 48 43 48 44 42 43 43 44
34 34 33 33 32 32 33 34 38 38 37 43 48 52 55 57 55 60 56 51 44 41 41 44 43 37 40
31 32 32 32 30 29 30 30 32 32 31 31 38 44 50 57 58 55 63 56 47 48 41 45 51 44 45
30 30 31 30 28 28 28 27 23 30 27 28 28 37 46 54 57 61 56 61 47 47 53 40 38 42 47

GFSFLT2_700_spd_117.txt.gz
Wind_Speed
39 39 44 47 40 40 44 37 42 42 39 37 43 57 59 48 43 45 48 43 44 47 32 36 34 34 33
47 44 44 38 46 43 38 37 35 39 37 38 37 45 56 48 58 47 42 44 44 51 41 36 35 31 33
38 44 35 38 32 38 45 45 45 34 41 37 37 39 42 45 55 55 52 56 54 57 43 41 40 39 37
43 37 41 39 40 36 38 31 28 37 35 35 40 35 38 42 48 48 57 59 53 49 47 45 45 39 39
46 47 46 44 46 42 41 36 34 32 33 35 37 35 36 37 39 40 40 51 57 49 47 47 45 40 39
44 46 46 47 48 47 46 43 44 44 38 36 34 34 33 36 40 38 35 34 32 41 44 45 40 43 42
41 42 44 44 47 46 49 50 50 48 47 50 44 41 37 36 34 36 33 37 33 30 33 35 42 48 46
40 41 43 42 44 46 47 50 52 52 51 56 51 52 45 41 37 35 31 30 29 28 29 38 46 43 40
38 40 40 41 43 47 45 48 50 50 48 57 56 53 52 45 42 39 33 27 27 32 38 41 40 35 35
34 34 35 36 38 42 46 49 50 51 45 49 53 55 58 53 48 45 41 33 32 35 39 34 32 34 34
39 36 35 35 36 38 41 44 48 51 48 48 49 49 55 59 55 51 48 44 39 37 36 35 36 35 36
38 36 35 34 34 34 36 39 43 48 45 46 53 50 51 53 57 55 54 50 48 45 43 41 40 38 36
38 36 34 33 33 34 34 35 39 41 41 41 46 48 51 53 53 56 56 57 57 50 50 48 46 43 41
36 35 34 33 33 33 34 34 36 34 36 38 39 45 49 52 53 54 56 60 59 57 51 51 52 53 47
34 34 32 31 31 31 33 33 35 33 31 32 35 39 46 48 53 55 55 59 59 60 52 49 46 53 53
31 31 31 30 31 30 31 31 32 31 31 29 31 35 40 46 48 51 56 55 58 54 57 45 43 45 49
30 30 31 31 31 29 30 30 30 29 29 28 27 31 34 39 40 45 50 53 54 49 50 58 47 40 42